SCP
0 0 0 0 0 0 1 1 1 1 1 0 0 0 0 0 0 0 0 0 0 0 0 1 1 1 1 1 1 1 0 0 0 1 1 0 0 0 0 0 0 0 0
1 1 0 0 0 0 0 0 0 0 0 0 0 0 0 0 0 0 0 0 0 0 0 1 1 1 1 1 0 0 0 0 0 0 1 0 0 0 0 0 0 0 0
1 1 0 0 0 0 0 0 0 0 0 0 0 0 0 0 0 0 0 0 0 0 0 1 1 1 1 0 0 0 0 0 0 0 0 0 0 0 0 0 0 0 0
1 1 0 0 0 0 0 0 0 0 0 0 0 0 0 0 0 0 0 0 0 0 0 1 1 1 1 0 0 0 0 0 0 0 0 0 0 0 0 0 0 0 0
0 0 0 0 0 0 0 0 0 0 0 0 0 0 0 0 0 0 0 0 0 0 0 0 1 1 1 0 0 0 0 1 1 1 0 0 0 0 0 0 0 0 0
0 0 0 0 0 0 0 0 0 0 0 0 0 0 0 0 0 0 0 0 0 0 0 0 1 1 1 0 0 0 0 1 1 1 1 0 0 1 1 0 0 0 0
0 0 0 0 0 0 0 0 0 0 0 0 0 0 0 0 0 0 0 0 0 0 0 0 0 1 1 1 0 0 0 1 1 1 1 0 1 1 1 1 0 0 0
0 0 0 0 0 0 0 0 0 0 0 0 0 0 0 0 0 0 0 0 0 0 0 0 0 0 1 1 1 1 1 1 1 1 1 1 1 1 1 1 1 0 0
0 0 0 0 0 0 0 0 0 0 0 0 0 0 0 0 0 0 0 0 0 0 0 0 0 0 1 1 1 1 1 1 1 1 1 1 1 1 1 1 1 1 1
0 0 0 0 0 0 0 0 0 0 0 0 0 0 0 0 0 0 0 0 0 0 0 0 0 0 0 1 1 1 1 1 0 1 1 1 1 1 1 1 1 1 1
0 0 0 0 0 0 0 0 0 0 0 0 0 0 0 0 0 0 0 0 0 0 0 0 0 0 0 0 1 1 1 0 0 0 1 1 1 1 1 1 1 1 1
0 0 0 0 0 0 0 0 0 0 0 -0 0 0 0 0 0 0 0 0 0 0 0 0 0 0 0 0 0 -0 0 0 0 0 0 1 1 1 1 1 1 1 1
0 0 0 0 0 0 0 0 0 0 0 0 0 0 0 0 0 0 0 0 0 0 0 0 0 0 0 0 -0 -1 -0 0 0 0 0 0 0 0 0 0 0 1 1
0 0 0 0 0 0 0 0 0 0 0 0 0 0 0 0 0 0 0 0 0 0 0 0 0 0 0 0 -0 -0 -0 0 0 0 0 0 0 0 0 0 0 0 0
0 0 0 0 0 0 0 0 0 0 0 0 0 0 0 0 0 0 0 0 0 0 0 0 0 0 0 0 0 0 0 0 0 0 0 0 0 0 0 0 0 0 0
0 0 0 0 0 0 0 0 0 0 0 0 0 0 0 0 0 0 0 0 0 0 0 0 0 0 0 0 0 0 0 0 0 0 0 0 0 0 0 0 0 0 0
0 0 0 0 0 0 0 0 0 0 0 0 0 0 0 0 0 0 0 0 0 0 0 0 0 0 0 0 0 0 0 0 0 0 0 0 0 0 0 0 0 0 0
0 0 0 0 0 0 0 0 0 0 0 0 0 0 0 0 0 0 0 0 0 0 0 0 0 0 0 0 0 0 0 0 0 0 0 0 0 0 0 0 0 0 0
0 0 0 0 0 0 0 0 0 0 0 0 0 0 0 0 0 0 0 0 0 0 0 0 0 0 0 0 0 0 0 0 0 0 0 0 0 0 0 0 0 0 0
0 0 0 0 0 0 0 0 0 0 0 0 0 0 0 0 0 0 0 0 0 0 0 0 0 0 0 0 0 0 0 0 0 0 0 0 0 0 0 0 0 0 0
0 0 0 0 0 0 0 0 0 0 0 0 0 0 0 0 0 0 0 0 0 0 0 0 0 0 0 0 0 0 0 0 0 0 0 0 0 0 0 0 0 0 0
0 0 0 0 0 0 0 0 0 0 0 0 0 0 0 0 0 0 0 0 0 0 0 0 0 0 0 0 0 0 0 0 0 0 0 0 0 0 0 0 0 0 0
0 0 0 0 0 0 0 0 0 0 0 0 0 0 0 0 0 0 0 0 0 0 0 0 0 0 0 0 0 0 0 0 0 0 0 0 0 0 0 0 0 0 0
0 0 0 0 0 0 0 0 0 0 0 0 0 0 0 0 0 0 0 0 0 0 0 0 0 0 0 0 0 0 0 0 0 0 0 0 0 0 0 0 0 0 0
0 0 0 0 0 0 0 0 0 0 0 0 0 0 0 0 0 0 0 0 0 0 0 0 0 0 0 0 0 0 0 0 0 0 0 0 0 0 0 0 0 0 0
0 0 0 0 0 0 0 0 0 0 0 0 0 0 0 0 0 0 0 0 0 0 0 0 0 0 0 0 0 0 0 0 0 0 0 0 0 0 0 0 0 0 0
Wind_Speed
6 5 4 3 3 3 4 4 5 6 6 7 7 8 6 6 6 6 5 13 14 14 15 17 17 18 18 18 18 18 18 18 18 18 19 19 19 18 18 18 17 16 16
5 4 4 3 3 3 3 3 4 5 5 4 6 7 6 5 6 7 6 8 14 15 16 18 18 19 20 20 19 19 19 19 18 18 19 19 19 19 19 19 18 17 17
5 4 3 3 3 3 3 2 3 3 3 4 5 6 5 6 7 8 7 6 7 14 18 19 19 20 21 21 20 19 19 19 18 19 19 19 19 19 19 19 19 18 17
6 4 3 2 2 1 1 1 1 2 2 2 3 4 4 5 7 7 7 6 6 7 12 19 20 22 23 22 21 20 20 19 19 19 19 19 19 19 19 19 19 19 18
6 4 3 2 2 1 1 1 1 1 1 1 3 3 4 4 5 6 7 8 8 8 7 12 19 22 23 24 22 21 20 19 19 20 20 20 20 20 19 19 19 19 19
6 5 3 3 3 2 1 1 1 1 1 2 2 3 3 4 4 5 6 6 6 9 9 10 9 12 20 22 21 20 20 20 20 20 21 21 21 20 19 19 19 19 19
6 5 4 3 3 2 1 1 1 1 1 1 1 3 4 4 4 4 4 4 5 7 7 8 7 7 7 16 19 19 20 20 20 20 20 21 21 19 19 19 18 19 19
6 6 5 4 4 2 1 1 1 1 1 1 2 0 3 5 3 2 1 2 3 3 5 7 7 8 8 5 8 15 17 18 18 19 19 20 20 19 18 18 18 18 18
7 6 7 5 4 3 2 2 2 3 2 1 2 3 1 2 4 3 2 1 2 3 3 4 6 7 9 7 6 10 13 13 16 18 17 17 17 17 16 17 17 17 18
6 7 7 6 5 4 3 3 3 3 3 2 1 2 3 3 2 4 3 2 2 3 4 4 4 4 5 6 7 10 11 12 13 14 14 14 15 14 14 15 16 17 18
3 5 7 6 6 5 5 4 3 3 3 3 2 2 2 2 3 3 4 4 3 2 3 4 3 3 3 4 5 7 10 9 9 10 11 10 12 13 12 14 15 16 17
3 3 4 6 6 6 5 5 5 4 4 4 3 3 3 3 3 3 4 4 4 4 4 3 2 2 2 3 5 8 9 8 7 7 7 7 7 7 7 8 10 12 15
3 4 3 5 5 6 6 5 5 5 4 4 5 4 4 4 4 3 3 3 3 3 3 2 2 0 1 2 2 7 8 8 8 8 8 7 6 5 4 3 2 3 6
4 5 5 3 5 6 6 6 4 5 5 5 5 5 4 4 4 4 4 3 3 2 2 2 1 1 2 3 5 7 6 10 11 11 11 11 10 10 9 9 8 7 6
5 6 7 5 4 5 6 6 5 6 5 5 5 5 4 4 4 4 4 4 3 3 2 2 0 1 2 3 5 5 6 11 13 14 14 13 13 12 12 11 11 11 10
4 6 7 7 6 6 5 5 5 6 6 6 5 5 5 4 4 3 4 4 4 4 3 2 1 2 4 5 7 6 8 14 14 14 14 14 14 14 13 13 12 12 12
5 5 5 6 7 7 6 5 6 6 7 6 6 6 6 5 4 3 3 3 4 4 5 3 1 3 5 8 7 7 7 7 8 14 15 15 15 14 14 14 13 13 13
6 5 5 5 6 7 6 6 7 6 6 7 7 7 7 5 5 4 3 4 4 4 4 4 3 3 5 9 9 9 7 8 8 13 15 16 15 15 15 14 14 13 13
7 7 6 6 6 6 6 7 6 7 6 7 7 8 7 6 6 4 4 4 4 4 4 4 4 3 5 8 10 9 9 8 8 11 14 15 15 15 15 15 15 14 14
8 8 7 7 7 7 7 7 6 6 6 6 7 8 8 8 7 6 5 5 4 4 5 6 6 6 6 8 9 9 8 6 7 8 9 11 14 16 16 16 16 16 14
10 9 9 8 7 6 7 6 5 6 6 6 6 7 8 10 10 7 5 5 5 5 5 7 8 7 8 10 9 7 9 8 7 5 7 6 6 6 7 12 15 16 14
9 9 9 10 9 8 9 11 7 6 6 6 7 6 7 9 10 10 10 9 9 8 8 7 7 10 10 10 8 10 11 10 6 3 5 5 4 5 4 4 9 12 12
9 9 10 10 10 11 14 13 12 7 6 6 6 6 6 7 8 5 5 5 6 10 10 8 11 11 11 12 12 11 9 6 7 7 6 5 3 4 3 4 8 10 10
7 8 9 10 9 11 14 14 13 7 6 6 6 7 7 7 8 7 5 3 3 3 7 7 8 9 11 10 10 10 10 9 8 5 4 5 3 3 3 2 4 7 8
7 7 7 9 9 10 13 14 12 5 5 6 6 6 6 7 11 11 7 6 6 5 8 12 12 14 16 15 12 10 10 11 10 5 2 4 3 3 2 1 1 4 5
7 8 8 8 9 9 12 13 11 4 5 4 4 4 6 8 12 13 9 9 9 7 9 13 14 14 13 13 12 9 9 11 9 5 3 4 4 4 3 1 1 1 1
Wind_Direction
213 213 217 221 214 203 202 209 215 212 214 218 222 227 231 231 230 227 233 236 235 235 231 230 225 226 228 224 221 218 217 217 214 210 208 209 210 210 211 213 213 211 210
203 206 211 212 213 201 195 196 207 205 210 214 221 221 224 225 231 226 225 234 235 234 232 228 225 229 231 229 225 221 220 220 217 214 212 212 212 212 213 214 215 214 213
187 188 196 210 221 215 199 197 210 200 207 215 225 224 224 225 227 229 225 221 230 232 230 229 229 231 232 231 228 225 222 220 219 217 215 215 214 213 214 214 215 216 215
174 170 179 210 214 197 196 209 217 210 215 219 232 237 232 229 232 231 227 222 221 228 232 231 231 233 234 235 234 230 226 222 220 220 218 217 216 215 215 215 216 217 216
166 154 164 185 161 141 143 187 141 159 190 243 253 248 242 238 239 241 234 228 223 223 226 235 235 234 235 238 238 234 229 225 222 221 220 219 219 217 216 216 217 217 217
160 148 148 153 136 116 101 123 153 164 192 226 271 285 267 253 243 239 241 238 230 228 227 231 235 237 237 238 238 236 233 229 225 223 223 222 221 219 216 216 217 218 218
159 150 144 143 130 128 158 187 171 174 246 203 33 324 302 275 254 247 245 248 247 243 235 230 228 228 236 236 236 236 234 232 231 230 227 225 223 219 216 215 216 218 219
165 156 154 155 150 142 148 211 162 164 243 171 139 32 337 335 336 295 273 257 271 274 258 246 231 226 227 226 231 234 235 235 235 234 233 230 227 222 217 216 216 216 218
175 164 167 162 164 157 182 217 204 179 205 247 178 158 159 273 308 309 288 275 311 304 288 279 253 235 225 220 222 228 230 232 235 237 237 238 237 229 221 217 216 216 218
189 176 174 172 172 170 189 220 201 188 177 219 253 202 187 183 221 302 307 293 304 305 299 297 285 256 227 212 214 215 216 219 223 230 237 238 240 232 224 221 221 220 221
220 199 187 180 178 181 193 206 204 204 193 197 209 218 226 215 205 220 284 307 313 281 284 281 271 256 231 203 203 213 212 211 213 217 223 228 233 230 223 225 227 228 227
305 271 218 195 188 185 192 201 206 211 214 216 217 210 204 208 206 206 246 285 300 295 294 283 277 243 220 184 193 192 188 182 178 178 182 196 212 209 207 220 230 236 237
326 314 275 219 203 196 194 194 202 216 219 222 225 224 219 219 210 208 229 258 276 294 300 310 312 275 150 129 149 157 148 143 141 135 130 133 133 129 131 145 195 234 244
311 323 319 273 229 209 201 196 202 216 220 225 231 227 226 234 221 212 212 225 273 290 295 286 338 36 86 92 105 108 116 125 123 119 116 113 108 102 97 91 85 79 74
320 333 330 322 293 248 222 204 209 218 221 227 232 234 232 236 229 224 215 201 209 245 275 263 216 92 97 93 105 102 107 113 110 108 107 105 104 101 96 90 84 79 75
313 321 325 324 315 291 258 229 220 222 221 230 229 233 236 236 235 230 223 214 204 206 229 241 195 144 131 121 114 107 107 109 105 107 107 106 104 101 97 92 87 81 77
290 299 304 309 309 304 291 265 245 230 225 230 231 229 234 231 232 233 228 220 213 202 222 223 173 141 132 129 120 111 109 103 105 107 108 107 104 100 95 90 86 83 80
270 272 279 288 294 298 299 289 273 258 236 229 228 226 233 231 228 228 225 228 222 208 202 198 167 148 137 138 129 122 115 108 104 107 106 105 103 99 94 90 86 81 79
261 265 264 266 273 279 286 289 284 275 254 238 226 220 224 218 226 225 227 232 230 219 199 181 165 146 135 139 130 119 112 107 104 106 101 99 100 98 95 92 89 85 82
250 254 254 254 258 265 273 278 280 280 271 256 236 224 217 210 216 219 228 232 227 216 194 179 162 151 143 139 133 131 121 114 109 104 97 99 99 96 97 98 97 94 89
248 246 248 251 251 254 259 261 262 274 277 271 255 235 221 213 211 210 218 224 212 205 187 175 163 152 150 150 144 138 130 118 97 106 108 97 90 85 85 97 100 100 96
249 246 244 246 248 252 255 258 260 264 267 265 258 245 227 211 209 213 225 226 213 199 187 174 165 161 155 150 139 142 139 136 120 134 112 98 90 87 76 84 107 106 103
248 248 247 244 244 245 248 253 260 254 256 260 254 239 227 204 189 196 211 216 213 203 189 172 163 160 156 154 147 146 147 134 127 148 123 101 85 84 78 96 114 115 114
238 243 245 242 240 244 242 243 248 248 250 256 255 238 223 196 189 182 176 159 138 151 171 163 153 146 145 143 141 141 135 112 104 122 111 107 103 91 83 73 116 122 123
238 240 240 237 234 241 239 237 235 229 241 255 260 244 220 199 191 176 161 146 126 110 108 116 120 122 125 128 134 133 132 134 136 141 122 110 124 103 86 84 104 129 126
235 241 243 235 230 233 234 230 223 210 231 248 258 244 223 207 187 175 163 154 144 135 129 119 114 116 122 128 136 142 146 146 143 143 161 121 139 130 120 155 168 140 109